Location: Kellogg
(38.0159°N, 90.0546°W)
Time: 11:45:59
(UTC+00:00)

Courier 1B - All Passes

Search period start: 07 September 2024 00:00
Search period end: 17 September 2024 00:00
Orbit: 962 x 1208 km, 28.3° (Epoch: 07 September)

Date Brightness Start Highest point End Pass type
(mag) Time Alt. Az. Time Alt. Az. Time Alt. Az.
07 Sep - 00:35:56 10° WSW 00:43:07 40° S 00:50:10 10° ESE visible
07 Sep - 02:29:51 10° WSW 02:36:51 37° S 02:43:36 10° SE visible
07 Sep - 04:24:50 10° WSW 04:30:16 21° SSW 04:35:30 10° SSE visible
07 Sep - 21:50:04 10° SSW 21:55:42 22° SSE 22:01:23 10° ESE daylight
07 Sep - 23:42:10 10° SW 23:49:14 37° S 23:56:15 10° ESE daylight
08 Sep - 01:35:48 10° WSW 01:42:59 40° S 01:49:59 10° ESE visible
08 Sep - 03:30:24 10° WSW 03:36:33 26° SSW 03:42:29 10° SSE visible
08 Sep - 20:57:15 10° SSW 21:01:57 17° SSE 21:06:43 10° ESE daylight
08 Sep - 22:48:31 10° SW 22:55:21 34° SSE 23:02:13 10° ESE daylight
09 Sep - 00:41:51 10° WSW 00:49:05 41° S 00:56:14 10° ESE visible
09 Sep - 02:36:07 10° WSW 02:42:46 31° SSW 02:49:12 10° SE visible
09 Sep - 04:32:25 10° WSW 04:36:01 14° SSW 04:39:32 10° S visible
09 Sep - 20:05:07 10° S 20:08:15 13° SSE 20:11:24 10° SE daylight
09 Sep - 21:55:03 10° SW 22:01:31 30° SSE 22:08:05 10° ESE daylight
09 Sep - 23:47:59 10° WSW 23:55:10 41° S 00:02:23 10° ESE daylight
10 Sep - 01:41:59 10° WSW 01:48:55 35° SSW 01:55:44 10° SE visible
10 Sep - 03:37:20 10° WSW 03:42:20 19° SSW 03:47:13 10° SSE visible
10 Sep - 21:01:47 10° SSW 21:07:43 25° SSE 21:13:48 10° ESE daylight
10 Sep - 22:54:12 10° WSW 23:01:17 39° S 23:08:27 10° ESE daylight
11 Sep - 00:47:56 10° WSW 00:55:03 38° S 01:02:06 10° ESE visible
11 Sep - 02:42:43 10° WSW 02:48:35 23° SSW 02:54:20 10° SSE visible
11 Sep - 20:08:48 10° SSW 20:13:58 20° SSE 20:19:18 10° ESE daylight
11 Sep - 22:00:33 10° SW 22:07:24 36° S 22:14:25 10° ESE daylight
11 Sep - 23:53:59 10° WSW 00:01:09 40° S 00:08:21 10° ESE daylight
12 Sep - 01:48:22 10° WSW 01:54:48 28° SSW 02:01:08 10° SE visible
12 Sep - 03:45:53 10° SW 03:48:02 11° SSW 03:50:10 10° SSW visible
12 Sep - 19:16:14 10° S 19:20:17 16° SSE 19:24:25 10° ESE daylight
12 Sep - 21:07:03 10° SW 21:13:33 32° SSE 21:20:18 10° ESE daylight
12 Sep - 23:00:08 10° WSW 23:07:15 41° S 23:14:29 10° ESE daylight
13 Sep - 00:54:12 10° WSW 01:00:58 32° SSW 01:07:42 10° SE visible
13 Sep - 02:50:03 10° WSW 02:54:20 16° SSW 02:58:34 10° S visible
13 Sep - 18:24:49 10° SSE 18:26:38 11° SSE 18:28:29 10° SE daylight
13 Sep - 20:13:43 10° SW 20:19:46 28° SSE 20:26:04 10° ESE daylight
13 Sep - 22:06:23 10° WSW 22:13:21 40° S 22:20:32 10° ESE daylight
14 Sep - 00:00:10 10° WSW 00:07:05 36° S 00:14:05 10° SE daylight
14 Sep - 01:55:13 10° WSW 02:00:35 20° SSW 02:05:56 10° SSE visible
14 Sep - 19:20:37 10° SSW 19:26:02 23° SSE 19:31:41 10° ESE daylight
14 Sep - 21:12:44 10° WSW 21:19:29 38° S 21:26:31 10° ESE daylight
14 Sep - 23:06:15 10° WSW 23:13:13 39° S 23:20:21 10° ESE daylight
15 Sep - 01:00:47 10° WSW 01:06:48 25° SSW 01:12:51 10° SSE visible
15 Sep - 18:27:49 10° SSW 18:32:22 18° SSE 18:37:04 10° ESE daylight
15 Sep - 20:19:12 10° SW 20:25:40 35° SSE 20:32:25 10° ESE daylight
15 Sep - 22:12:25 10° WSW 22:19:19 40° S 22:26:29 10° ESE daylight
16 Sep - 00:06:34 10° WSW 00:12:59 29° SSW 00:19:29 10° SE daylight
16 Sep - 02:03:18 10° SW 02:06:19 13° SSW 02:09:21 10° S visible
16 Sep - 17:35:36 10° S 17:38:44 13° SSE 17:41:57 10° SE daylight
16 Sep - 19:25:51 10° SW 19:31:53 30° SSE 19:38:15 10° ESE daylight
16 Sep - 21:18:41 10° WSW 21:25:27 40° S 21:32:33 10° ESE daylight
16 Sep - 23:12:32 10° WSW 23:19:09 33° SSW 23:25:56 10° SE daylight
